Location: Eastchurch
(51.4000°N, 0.8667°E)
Time: 22:11:34
(UTC+00:00)

COSMO-SKYMED 1 - Pass Details

Date: 19 January 2026
Orbit: 578 x 579 km, 97.9° (Epoch: 7 February)

Event Time Altitude Azimuth Distance (km) Brightness Sun altitude
Exits shadow 17:41:06 14° 45° (NE) 1,644 4.2 -11.7°
Maximum altitude 17:43:43 25° 94° (E) 1,192 3.5 -12.1°
Drops below altitude 10° 17:47:07 10° 150° (SSE) 1,889 4.9 -12.6°
Sets 17:49:33 0° 164° (SSE) 2,782 5.9 -13.0°
